Location: Bucharest
(44.4268°N, 26.1025°E)
Time: 00:13:59
(UTC+03:00)

O/OREOS (USA 219) - Pass Details

Date: 02 July 2022
Orbit: 621 x 646 km, 72.0° (Epoch: 22 May)

Event Time Altitude Azimuth Distance (km) Brightness Sun altitude
Rises 02:29:32 0° 325° (NW) 2,964 ? -20.6°
Reaches altitude 10° 02:32:05 10° 313° (NW) 2,051 ? -20.5°
Enters shadow 02:35:47 27° 260° (W) 1,257 ? -20.3°
